Wind_Speed
8 8 7 7 7 7 9 12 14 15 15 15 15 17 19 20 21 22 21 21 20 21 22 23 24 24 23 21 21 22 23 24 25 26 26 27 26 25 24 23 22 22 22 22 21 20 20 19 18 18 18 20 24 27 30 32 33 33 34 34 30 27 26 27 27 25 24 22 23
8 7 6 6 7 9 12 15 16 17 18 18 17 18 20 21 22 22 22 21 19 19 20 21 23 24 24 22 21 21 22 24 25 26 27 27 28 27 27 26 25 24 23 22 21 19 17 15 14 14 15 17 21 25 29 31 32 32 31 29 28 26 25 27 28 26 24 21 21
12 9 7 8 10 13 15 17 18 19 19 19 19 20 20 20 21 21 21 20 19 20 21 22 24 25 25 25 24 23 23 24 25 26 26 26 27 27 28 28 26 25 23 21 19 17 15 13 11 11 11 13 17 22 26 29 31 30 29 27 26 25 24 25 25 23 22 20 20
12 11 10 11 12 14 16 17 18 18 19 19 20 20 20 20 19 20 19 18 17 18 21 22 23 24 25 24 23 23 23 23 24 24 23 22 23 24 26 27 28 28 26 23 21 18 16 14 11 9 9 10 14 20 24 27 28 28 27 27 26 25 24 23 21 19 19 19 20
11 11 11 11 12 14 15 15 15 16 16 17 18 18 18 19 18 17 15 14 13 14 16 19 21 22 22 22 22 21 21 20 19 18 17 17 17 19 21 23 26 28 28 27 26 23 20 18 14 9 7 8 13 19 24 27 27 26 25 25 25 25 24 23 21 19 19 20 20
10 9 9 11 12 13 13 13 12 13 14 15 16 16 17 17 17 16 14 12 10 10 11 13 17 20 21 21 21 20 19 17 15 13 13 13 13 13 14 15 17 20 23 25 26 26 25 22 17 12 8 7 12 19 25 27 26 24 23 23 24 24 25 25 23 21 20 21 21
9 9 9 11 13 14 13 12 12 12 13 15 16 17 16 16 16 16 14 11 9 8 8 10 13 16 18 19 20 20 18 15 12 10 10 11 11 11 11 10 11 12 14 17 20 21 21 21 17 12 10 10 14 20 25 27 26 24 23 23 24 25 26 26 25 23 22 21 20
12 12 13 14 15 15 14 13 12 12 14 17 18 18 17 16 15 13 11 9 8 7 8 9 10 12 14 16 18 19 18 15 11 9 9 10 12 12 13 13 13 13 14 15 15 14 12 13 12 12 12 13 16 21 24 26 26 25 25 25 26 27 27 27 26 24 22 21 20
15 16 16 17 18 18 17 15 13 14 17 19 19 19 18 17 15 12 10 8 8 8 8 9 9 9 9 11 14 16 16 15 12 10 10 11 11 12 13 13 13 13 13 13 13 12 12 12 11 11 12 14 17 21 24 26 26 26 27 28 28 28 28 27 26 24 22 21 20
15 16 17 18 19 20 19 17 15 16 18 20 20 19 18 17 15 14 12 11 9 9 9 9 10 9 8 8 10 12 15 16 15 14 13 12 12 13 13 13 13 13 12 12 13 14 15 14 11 10 11 13 17 20 24 25 26 27 28 29 29 28 27 27 26 25 23 21 20
14 15 16 16 17 18 18 17 16 16 18 20 20 19 17 16 16 16 15 14 11 9 8 9 9 10 11 11 11 12 14 15 16 16 15 15 15 16 17 17 17 16 15 14 14 15 16 15 13 11 11 14 17 21 24 25 26 27 28 29 29 27 26 25 25 24 23 21 19
15 16 16 16 16 16 16 16 17 17 18 20 19 18 17 15 15 16 16 15 12 9 7 6 7 9 12 14 15 16 17 17 18 18 19 19 20 21 21 21 21 20 19 18 18 18 18 17 16 15 16 18 21 23 25 26 26 27 28 28 27 26 24 23 22 22 21 19 17
16 16 16 16 17 16 17 17 18 18 19 19 19 19 17 15 14 15 16 16 15 13 11 10 10 11 14 17 19 21 21 21 21 22 23 24 24 24 23 23 23 22 22 21 21 21 20 20 20 20 21 22 24 25 25 26 26 27 27 27 26 25 23 22 21 20 19 18 16
21 20 18 17 17 17 17 18 19 19 19 19 20 20 18 15 14 15 17 19 19 18 17 16 15 17 19 21 23 23 23 23 23 24 25 25 24 24 23 23 22 22 21 21 22 22 22 22 23 23 24 25 25 25 25 25 26 27 28 27 26 25 23 22 21 20 19 18 17
26 25 23 21 19 18 18 18 18 18 18 18 20 21 19 16 16 17 20 22 23 22 21 20 20 21 22 23 24 24 23 22 22 23 23 23 23 22 22 22 21 21 20 20 21 21 22 23 24 25 25 26 25 25 25 25 26 28 29 28 27 25 24 23 22 21 20 19 18
23 24 24 23 22 21 20 20 20 19 18 19 21 21 20 19 18 20 22 23 23 23 21 21 21 22 23 24 23 22 21 20 20 20 21 21 21 21 22 21 21 20 20 20 20 21 22 24 25 26 26 26 25 24 24 25 27 28 29 28 27 25 25 24 23 22 21 20 19
17 19 21 21 22 22 22 22 22 21 21 21 22 21 20 19 19 20 22 23 22 21 20 20 20 21 22 23 23 22 21 20 20 20 20 20 21 21 21 21 21 21 21 20 21 22 23 24 25 26 26 25 24 24 24 25 27 28 28 27 25 23 23 22 22 22 21 21 20
12 14 16 18 20 21 23 23 24 23 23 22 21 20 19 18 19 19 21 22 22 21 21 20 20 20 21 22 23 23 22 21 20 21 20 21 21 21 21 21 22 21 21 21 22 23 24 25 25 25 25 24 24 24 25 25 26 27 26 24 23 21 21 20 21 21 21 20 20
8 9 11 13 16 19 21 23 24 24 24 23 22 20 19 19 19 19 20 20 21 21 21 20 20 20 21 21 22 23 23 22 21 21 20 20 20 20 21 21 21 21 22 22 23 23 24 25 25 24 24 24 24 24 25 26 26 26 24 23 21 20 20 20 20 20 20 20 19
5 6 7 8 11 14 17 19 21 22 23 23 23 22 22 21 20 20 20 20 21 21 21 21 21 21 22 22 22 23 23 23 22 20 19 19 19 19 19 20 20 21 22 22 23 24 24 24 24 24 23 24 24 25 25 26 26 25 24 22 22 22 21 21 21 20 20 19 19
6 5 6 7 8 10 12 14 16 17 18 19 20 21 21 22 22 22 22 22 21 21 22 22 23 23 23 23 23 23 23 23 22 21 19 19 19 19 19 20 20 21 22 23 23 24 24 24 24 23 23 23 24 25 25 26 25 25 24 24 24 23 23 23 22 21 21 20 20
8 7 6 7 8 10 11 13 14 16 16 17 17 18 18 19 21 22 23 22 22 22 23 24 25 25 25 25 25 24 24 24 23 22 21 21 20 20 20 21 21 21 22 23 24 24 24 23 23 23 23 23 24 24 25 25 24 24 24 24 24 24 23 23 22 21 20 20 20
11 10 8 7 7 9 10 13 15 16 17 18 18 17 17 17 18 20 21 22 22 23 24 25 26 28 28 27 26 25 24 24 24 24 24 23 22 22 22 22 22 22 23 24 24 24 24 24 23 23 23 23 23 23 23 23 23 23 23 23 23 23 23 22 22 21 20 19 19
12 12 11 10 9 9 10 11 12 14 15 17 17 18 18 18 18 19 20 21 21 22 23 24 25 27 28 28 28 26 25 25 25 26 26 25 25 24 24 24 24 24 24 25 25 25 25 25 24 23 23 22 22 22 22 21 21 21 21 22 22 22 22 21 21 20 19 19 18
13 13 13 12 11 11 11 11 11 11 12 14 15 16 18 19 20 20 20 20 21 21 21 21 22 24 26 27 28 28 27 27 27 27 27 27 26 26 25 25 25 25 25 26 26 26 26 26 25 24 23 23 22 22 21 20 20 20 20 20 21 21 20 20 20 19 19 18 18
13 13 12 12 12 12 12 11 11 11 12 12 13 14 16 17 19 20 21 21 21 21 21 20 20 21 23 25 27 28 28 28 28 28 28 28 27 27 27 26 26 26 27 27 27 27 27 27 26 26 25 23 23 22 21 20 20 19 19 19 19 19 19 18 18 18 18 17 17
13 12 12 12 12 12 12 12 12 12 12 12 12 13 14 15 16 18 20 21 22 22 21 20 20 20 21 23 25 27 28 28 29 29 29 28 28 28 28 28 28 28 28 29 28 28 27 27 27 26 26 25 24 22 21 20 19 19 18 18 18 18 18 18 18 18 17 16 16
15 14 13 12 12 12 12 12 12 11 12 12 11 11 11 11 12 14 16 18 20 21 20 20 19 19 20 22 23 25 26 28 28 29 29 29 29 29 29 29 29 29 30 30 30 29 28 27 27 27 27 26 25 23 21 20 18 18 18 18 17 16 17 17 17 17 16 15 15
17 16 15 14 13 12 12 12 11 11 11 11 11 11 10 10 10 11 13 14 15 17 17 18 19 19 20 20 22 23 25 26 27 28 28 29 29 29 30 30 30 30 30 31 31 30 29 28 28 27 27 26 25 23 21 19 18 18 18 18 16 16 16 16 16 16 16 16 15
17 17 16 15 14 13 12 11 11 11 11 11 11 11 11 10 9 10 10 11 12 13 15 16 17 18 19 20 21 22 23 24 25 26 26 27 27 28 28 29 29 29 30 30 30 30 30 29 29 27 26 26 25 23 21 19 18 18 18 18 16 16 16 16 16 16 16 16 16
17 17 16 15 14 13 12 12 12 11 11 11 11 11 11 10 10 9 9 10 10 11 13 14 15 16 18 19 20 21 22 23 23 24 24 25 25 26 26 27 27 28 28 29 29 29 29 29 29 28 26 25 24 22 21 20 19 19 19 18 17 16 16 16 16 16 16 16 16
15 16 16 15 14 13 13 12 12 12 12 12 12 11 11 11 10 10 9 9 9 10 11 12 13 14 16 17 19 20 21 21 22 22 22 23 23 24 24 25 25 25 26 26 27 27 27 27 27 27 26 24 23 22 21 19 19 18 18 18 17 17 16 16 16 16 16 15 15
15 15 15 15 14 14 14 13 13 13 13 13 13 13 13 12 12 11 10 9 9 10 11 11 12 13 14 15 16 18 19 20 20 20 21 21 21 22 22 22 22 22 23 24 25 26 26 26 25 25 24 23 23 22 20 18 18 17 16 17 17 17 17 17 16 16 15 14 14
14 14 15 15 15 15 15 14 14 14 13 14 14 14 14 13 12 12 11 10 10 10 11 11 12 12 13 14 15 16 17 18 18 19 19 19 20 20 20 20 20 20 21 22 24 25 25 25 24 24 23 22 22 20 18 16 16 15 15 15 16 17 17 17 17 16 15 14 14
14 14 14 15 15 15 15 15 15 14 14 14 14 14 14 13 12 12 11 11 11 11 11 11 12 13 13 14 14 15 15 16 17 17 18 18 19 19 19 19 19 20 21 22 24 25 25 24 23 22 22 21 20 19 17 15 15 14 14 14 14 16 17 17 17 16 16 16 15
14 14 14 15 15 15 16 16 15 15 14 14 14 14 14 13 13 12 11 11 11 11 11 11 12 12 13 14 14 14 15 16 16 17 17 18 19 19 19 19 19 20 22 23 24 24 24 24 22 21 20 19 18 17 16 15 14 14 13 13 14 15 15 16 16 16 17 17 17
14 14 13 14 15 15 16 16 16 15 15 15 14 14 14 13 13 13 12 11 11 11 11 12 12 12 13 14 14 15 15 16 16 17 17 18 19 19 20 20 20 21 22 23 24 23 23 22 21 20 19 17 16 16 15 14 14 13 13 13 13 14 14 15 15 16 16 17 17
16 15 14 14 14 15 15 16 16 16 16 16 15 15 15 14 14 13 13 12 11 11 12 12 13 13 14 14 15 15 16 16 17 17 18 18 19 20 20 20 20 21 22 23 23 22 22 21 20 19 18 17 16 15 14 14 13 13 13 13 13 13 13 14 15 16 16 17 17
18 16 15 14 14 14 15 16 16 16 17 17 17 17 16 15 15 14 13 13 12 12 12 13 14 14 15 15 15 16 16 17 17 18 18 19 19 19 20 20 21 21 22 22 22 22 21 20 19 18 18 17 16 15 14 13 13 13 13 13 12 12 13 14 15 16 17 17 18
18 17 16 15 14 14 14 15 16 16 17 17 17 17 16 16 15 14 14 13 13 14 14 14 15 15 15 16 16 17 17 18 18 19 19 19 19 19 20 20 21 21 22 22 22 21 20 19 19 19 18 17 16 14 13 13 13 13 13 12 12 12 13 14 15 16 16 17 18
18 18 17 16 15 15 14 15 16 17 17 17 17 18 17 17 16 15 15 15 15 15 15 15 15 15 15 16 17 18 19 19 19 20 20 20 19 19 19 20 20 21 22 22 22 21 20 19 19 19 19 17 16 14 13 13 13 13 13 12 12 12 12 13 14 15 16 16 17
Wind_Direction
231 227 225 223 226 236 245 248 250 251 252 255 255 253 249 246 244 244 244 245 245 246 245 244 243 240 236 231 226 224 223 224 225 225 225 226 225 222 219 218 217 218 219 221 223 225 228 231 235 240 245 247 247 246 247 250 254 258 259 257 249 239 230 225 223 219 213 207 207
260 252 244 239 237 238 239 241 243 245 246 247 247 246 245 243 243 245 247 249 251 253 253 251 248 244 240 236 230 225 224 225 227 226 224 224 224 223 222 221 218 216 216 218 219 221 224 228 232 237 243 247 248 247 247 249 250 251 252 251 247 242 236 232 230 226 220 215 211
260 257 252 241 235 233 234 236 239 241 242 243 244 245 245 245 246 247 248 249 251 254 253 250 247 243 241 238 233 228 223 223 223 222 221 221 222 223 222 221 218 216 215 214 215 217 220 223 227 232 238 244 247 247 247 248 249 248 247 246 245 244 241 238 234 228 220 214 212
252 249 246 240 236 233 232 233 236 239 241 242 243 244 245 244 245 245 244 242 245 248 248 243 237 234 233 232 228 221 216 214 214 215 215 218 221 224 225 225 224 223 222 218 220 222 223 224 219 219 227 237 244 245 246 248 249 247 244 242 242 243 243 241 234 222 209 203 204
247 247 246 245 241 237 234 233 236 240 241 240 240 241 240 239 239 239 238 236 239 246 247 240 227 221 218 217 213 208 204 203 204 206 211 217 223 227 227 227 228 228 228 228 230 231 230 229 220 208 206 227 240 244 246 248 249 247 244 240 238 239 241 240 233 219 205 198 198
253 256 253 247 240 236 235 238 242 245 245 243 240 237 235 234 234 234 235 236 238 247 252 242 222 211 206 205 202 199 197 197 200 206 214 221 223 223 224 226 227 228 229 231 234 235 234 230 221 204 192 213 235 242 244 246 247 245 242 238 237 237 238 237 231 220 208 200 196
266 267 262 254 248 244 242 246 251 256 256 251 243 237 233 231 230 231 233 237 241 252 256 246 225 212 206 205 206 208 208 207 207 214 223 229 230 233 236 239 241 241 237 233 232 230 228 226 216 195 181 202 225 236 240 242 242 241 239 237 236 236 236 234 229 221 211 204 200
276 273 270 265 260 254 250 251 258 264 263 258 248 241 236 231 228 228 230 234 243 256 259 250 236 224 217 215 215 217 219 219 219 225 234 241 245 250 255 259 264 264 258 247 235 222 211 205 193 178 175 192 214 228 234 236 237 235 234 233 233 233 232 229 226 220 214 209 209
275 269 265 261 257 254 253 254 259 264 262 258 249 241 235 230 226 226 229 237 250 262 264 255 247 239 230 223 221 221 223 225 229 235 242 246 247 249 252 257 263 266 262 252 240 229 222 217 196 176 174 189 208 221 229 232 231 230 229 228 228 228 227 225 223 222 220 218 218
269 262 256 252 250 250 250 252 255 258 258 255 245 237 230 227 225 227 232 241 253 262 266 262 256 249 240 231 223 222 223 226 229 232 236 239 240 242 245 251 258 261 258 249 240 235 232 226 209 191 187 198 210 219 225 228 228 226 224 224 223 222 221 221 222 224 226 227 225
276 268 261 256 252 250 249 248 248 251 253 250 242 233 227 225 225 229 235 242 247 254 261 264 261 254 246 238 230 224 221 222 223 224 227 230 235 240 245 251 257 259 258 252 243 236 232 229 223 215 213 216 218 221 224 226 225 222 220 220 219 217 216 218 221 224 227 228 226
282 277 272 268 264 259 254 249 246 247 250 249 242 235 230 228 227 230 235 238 237 237 241 245 244 243 241 238 233 228 224 221 220 220 222 225 229 234 239 244 249 252 253 252 247 240 234 230 228 224 222 223 222 222 223 224 222 219 217 217 216 214 213 215 218 220 221 219 215
284 282 279 275 270 265 260 254 250 248 249 249 243 237 234 236 236 236 236 234 230 227 226 225 223 223 226 229 229 227 225 222 220 220 222 224 225 227 230 234 237 240 242 244 243 238 233 229 226 222 219 219 220 222 223 223 220 217 215 213 211 210 210 213 216 216 212 207 203
277 278 277 276 273 267 261 256 251 249 248 247 240 235 235 243 246 243 239 234 229 226 224 222 218 217 220 224 226 226 224 222 220 220 221 222 223 223 224 226 229 231 232 234 234 231 228 225 223 221 219 219 220 221 223 223 221 217 214 211 209 209 212 217 218 214 207 201 200
269 268 269 270 270 267 261 254 250 248 247 245 238 234 235 244 248 244 238 233 229 227 226 222 219 217 219 223 225 225 224 222 221 220 220 220 220 221 222 223 225 226 226 227 226 226 224 224 223 222 221 220 221 222 223 223 220 217 214 212 212 215 220 223 219 212 206 203 202
260 261 261 261 262 261 257 252 248 248 248 245 240 236 237 241 243 239 234 230 228 227 227 225 222 220 219 221 222 223 223 223 222 221 220 219 219 219 220 221 221 221 221 221 221 222 223 224 224 224 223 222 223 224 223 221 217 214 213 214 216 220 223 223 217 211 208 208 208
253 254 255 254 253 252 251 250 248 248 248 246 244 242 240 240 238 235 231 228 227 227 228 228 226 223 221 220 220 220 222 223 224 223 221 218 217 217 217 218 218 218 218 218 219 221 222 223 224 224 224 225 226 226 224 219 213 211 210 212 214 216 217 216 213 210 209 211 213
253 251 251 250 249 248 247 247 246 246 246 247 247 246 244 241 238 235 232 230 229 230 230 230 228 226 223 221 221 220 221 223 224 223 221 218 216 215 214 214 216 217 218 219 220 221 221 221 221 222 223 226 227 227 223 216 209 206 205 206 207 208 209 210 210 210 210 211 213
264 258 254 251 250 248 247 247 246 246 246 247 248 248 246 243 239 236 234 232 232 232 232 231 229 227 226 224 223 222 222 222 223 222 220 217 214 212 212 213 216 218 220 220 221 220 220 219 219 220 221 223 223 221 217 210 205 203 203 204 207 209 211 211 212 212 212 212 211
289 279 269 262 256 252 250 249 249 247 246 246 247 247 245 242 239 237 236 235 235 234 233 232 230 229 228 227 226 225 224 222 220 219 217 214 212 210 211 214 218 221 222 221 221 220 219 219 219 219 219 218 216 213 209 205 204 204 207 211 214 215 216 217 218 218 217 215 213
303 290 275 265 258 254 252 252 252 250 247 244 243 242 241 240 238 237 237 237 238 237 235 233 231 230 229 228 227 226 224 222 220 217 215 213 211 212 215 219 222 224 224 223 222 221 220 219 219 218 216 214 211 208 206 204 205 207 211 215 216 217 218 220 222 223 222 220 217
317 307 290 273 261 254 251 251 251 250 247 243 239 237 237 237 236 237 237 238 239 238 237 235 232 231 230 229 227 226 225 223 221 219 217 216 216 218 222 226 228 228 227 226 224 223 222 220 219 216 213 210 208 207 206 206 206 208 211 213 214 215 218 221 224 225 225 223 220
327 324 318 304 287 272 263 257 254 252 250 247 243 240 239 237 236 235 235 235 236 237 237 235 233 231 230 229 228 227 225 224 222 222 221 221 222 225 228 231 232 231 229 228 227 225 222 220 217 214 211 208 206 206 206 206 206 206 207 209 211 213 216 220 223 224 223 222 220
328 326 324 319 311 301 289 278 269 263 258 254 251 249 247 245 242 239 237 235 234 233 234 234 233 231 229 228 228 226 225 223 222 222 223 224 226 228 231 233 233 232 230 230 228 226 223 220 215 212 209 207 206 205 205 205 205 205 205 207 208 211 214 217 219 220 219 218 218
326 324 322 320 316 311 305 298 290 281 271 264 258 255 253 251 250 248 246 243 239 236 236 238 236 232 229 228 226 225 224 223 222 221 222 223 226 228 230 231 230 230 229 228 227 226 225 222 217 213 210 208 207 206 205 204 204 204 204 205 206 207 209 211 213 214 215 215 217
329 325 321 318 315 312 309 305 300 294 286 277 269 262 258 255 254 253 252 251 249 247 246 246 243 237 232 228 225 223 222 222 222 221 221 222 224 226 228 228 228 227 226 225 224 223 223 222 219 216 212 210 209 207 206 204 205 204 203 204 204 204 204 206 208 211 213 216 218
336 329 322 318 315 313 311 309 306 301 297 291 283 274 266 261 258 256 255 254 254 254 254 252 247 240 232 227 224 222 220 221 221 221 221 221 222 224 225 226 226 225 224 223 221 220 219 219 217 216 214 212 211 209 206 204 204 203 202 202 202 203 204 205 207 210 212 216 219
342 335 327 321 317 315 313 311 309 305 302 298 293 287 278 270 265 261 258 256 255 255 255 254 248 240 232 226 222 220 219 219 219 219 219 220 221 223 224 224 224 223 223 221 219 217 215 214 213 213 213 212 210 208 204 201 200 200 200 200 200 202 204 206 209 211 212 214 216
345 340 333 326 320 315 314 312 311 308 304 301 297 292 286 278 270 265 261 258 256 255 254 253 249 242 234 226 221 218 217 216 216 215 216 217 218 220 221 221 220 220 220 220 217 214 212 211 210 211 211 211 208 205 201 198 196 196 197 197 198 200 203 206 209 210 210 210 210
347 343 337 330 323 317 314 312 310 309 306 303 299 295 289 282 274 267 263 260 257 255 252 249 246 241 234 228 222 218 216 215 214 213 213 214 214 216 216 217 216 216 217 217 215 211 209 208 208 208 209 208 206 202 199 197 197 197 197 196 197 200 202 204 206 206 205 204 204
347 344 340 333 326 319 314 310 309 308 306 304 301 297 292 286 279 271 265 260 258 255 252 248 244 239 234 230 226 222 219 217 215 214 213 213 213 213 213 213 213 213 214 213 210 207 205 204 205 205 205 205 202 200 198 199 199 200 199 199 200 201 203 203 202 201 199 198 197
346 343 340 335 328 321 315 311 307 305 304 303 301 298 294 288 283 276 268 260 256 254 251 247 243 238 233 230 227 224 222 220 218 216 215 214 213 212 211 210 210 211 211 209 206 202 201 200 201 201 201 199 198 197 198 200 201 202 202 202 203 204 203 202 200 197 195 194 193
345 342 339 335 329 323 318 313 308 304 302 300 299 297 294 290 287 280 271 260 253 250 248 246 242 237 232 229 226 224 222 221 219 217 215 213 211 209 207 207 207 208 207 204 201 198 197 196 196 196 195 194 195 196 198 200 202 202 203 205 206 205 203 200 198 195 193 191 192
344 342 338 334 329 325 320 315 310 305 302 299 297 296 294 292 288 283 275 265 255 250 247 245 242 240 236 232 228 224 222 220 218 215 212 209 206 204 201 200 202 203 202 199 196 194 194 194 193 193 192 193 196 197 199 200 203 203 204 205 206 206 204 202 199 195 191 189 189
342 340 337 333 329 325 322 317 313 307 302 298 296 295 294 291 287 283 277 270 261 254 248 245 242 240 238 235 231 227 222 218 215 211 207 203 200 197 194 193 195 196 196 193 191 191 191 192 191 192 193 196 199 200 201 202 203 203 203 204 205 205 205 202 199 195 191 189 189
338 338 335 332 328 325 321 318 314 308 303 298 295 294 293 290 287 283 277 272 266 258 252 246 241 238 235 233 229 226 221 216 211 206 203 200 196 192 189 188 188 190 191 189 188 189 190 191 192 193 196 200 203 204 203 203 201 200 200 200 201 203 204 202 199 197 194 193 191
332 333 332 330 327 324 321 318 314 309 303 298 295 293 291 290 287 283 278 272 267 260 253 246 241 236 232 229 226 223 220 215 209 204 201 198 195 191 188 186 186 187 188 187 188 189 191 192 194 196 198 200 202 201 200 199 199 198 198 199 200 201 202 202 201 200 198 198 196
326 327 327 326 324 322 319 317 313 308 303 299 295 292 291 289 286 282 276 270 264 259 253 248 241 236 232 228 224 221 217 212 208 204 200 198 196 193 191 189 188 187 187 188 190 193 194 195 196 198 199 197 196 194 193 194 195 197 197 198 199 200 201 202 203 203 203 202 201
321 322 321 320 319 318 316 314 310 306 302 298 295 292 289 287 284 280 275 269 263 257 253 248 243 238 233 227 222 218 213 209 207 204 202 199 198 196 195 193 191 190 190 190 192 195 196 197 197 197 196 194 191 190 190 191 194 196 197 197 198 199 201 204 206 207 207 207 207
317 317 316 314 313 313 311 309 307 303 300 296 293 290 287 284 282 278 274 269 263 257 252 249 245 240 234 227 221 215 211 207 206 204 202 200 199 198 198 197 195 194 193 193 195 196 198 197 196 194 192 191 190 190 190 192 193 195 196 197 197 198 201 206 208 209 210 211 211
313 313 312 310 308 307 307 305 304 302 300 296 292 288 285 283 280 277 273 268 263 258 253 249 246 241 234 226 220 215 211 207 205 204 202 200 199 199 199 199 199 198 197 197 198 199 199 198 195 193 191 189 189 189 190 192 193 195 196 197 197 199 202 205 208 210 211 214 214
Height
755 755 755 755 755 757 758 761 763 764 765 766 767 767 768 769 769 770 771 771 770 770 770 770 770 770 769 769 769 769 769 770 772 773 774 774 775 775 776 776 777 778 779 779 781 782 783 783 784 783 783 784 786 788 791 793 795 796 796 795 795 794 793 792 791 791 791 791 790
753 753 753 753 754 757 760 762 763 764 765 766 766 767 767 767 768 768 768 768 768 768 768 768 768 768 768 768 767 767 767 768 770 772 773 773 773 773 773 774 775 775 776 777 778 779 779 780 780 779 779 781 784 787 789 792 793 794 795 794 794 793 792 791 790 789 789 790 789
753 752 752 753 756 758 760 762 763 763 764 765 765 765 765 766 766 766 767 767 767 767 767 767 767 767 767 767 766 765 765 766 768 769 770 771 772 772 772 772 773 773 774 774 775 776 776 776 776 776 776 778 781 785 788 791 792 793 793 793 793 793 792 790 789 788 788 788 789
752 752 753 754 756 757 759 760 761 761 762 763 763 763 763 764 765 766 766 766 766 766 766 766 765 765 765 765 764 763 763 764 766 767 768 769 771 772 772 772 772 771 771 772 772 772 773 773 773 773 773 774 779 784 788 790 791 792 792 792 792 792 791 790 789 788 787 787 788
752 753 753 753 755 756 757 758 759 760 760 761 761 762 762 763 764 765 765 765 765 765 765 764 764 763 763 763 763 762 762 763 764 765 767 768 770 772 772 772 772 771 770 770 770 769 769 769 769 769 769 771 777 782 787 790 791 791 791 791 791 791 791 790 789 788 787 787 788
751 752 752 753 754 755 756 757 758 758 759 759 760 760 760 761 762 763 763 763 763 763 763 763 763 762 761 761 762 761 761 761 762 763 764 766 769 771 772 772 772 770 769 768 768 768 768 767 765 764 764 768 775 781 786 789 790 790 790 789 789 789 790 790 789 788 787 787 787
751 751 751 752 752 753 754 755 756 757 758 758 759 759 759 759 760 760 761 761 761 761 762 763 762 762 761 760 760 760 760 760 759 760 761 764 766 768 770 770 771 770 768 767 767 767 767 766 763 760 760 765 773 780 784 787 788 788 788 788 788 788 789 789 788 788 787 786 787
749 749 750 750 752 753 754 755 756 757 757 758 758 758 758 758 758 758 758 758 758 759 760 762 762 761 760 759 759 759 758 758 757 757 758 761 763 766 768 769 770 769 768 767 767 767 766 764 761 758 758 763 771 777 781 783 785 786 786 786 787 787 788 788 787 787 786 786 786
749 749 750 751 752 753 753 754 755 756 757 757 757 756 756 756 757 757 757 756 757 758 759 760 760 760 760 759 758 758 757 756 755 755 757 760 762 765 767 769 770 769 768 768 767 767 766 765 761 758 757 762 768 774 778 780 781 783 783 784 785 785 785 786 786 785 785 784 785
751 751 751 752 752 752 753 753 754 755 756 756 756 755 755 755 755 755 755 755 755 756 758 758 759 759 759 759 758 757 756 756 755 756 758 760 763 765 767 768 768 768 768 768 767 767 766 765 763 760 759 762 766 771 774 777 778 780 781 782 782 783 783 783 783 783 783 783 783
751 752 752 752 751 752 752 752 753 754 755 755 755 755 754 754 754 754 753 753 754 756 757 757 758 758 758 758 758 758 757 757 757 757 758 760 762 763 765 766 766 767 767 767 767 766 766 765 763 762 761 763 765 769 772 774 776 778 778 779 780 781 782 782 782 782 782 782 783
751 751 752 752 752 752 752 752 753 753 754 754 754 754 754 754 754 753 753 753 753 754 755 756 756 757 757 757 757 756 756 756 756 757 758 759 759 760 761 763 763 764 765 765 765 765 765 764 763 763 763 764 765 768 770 772 774 776 777 778 779 779 780 780 780 781 781 781 782
751 751 752 752 752 752 752 752 752 752 753 753 753 753 753 753 753 753 752 752 752 753 753 754 754 754 754 754 754 754 753 754 754 755 756 756 757 757 758 759 761 762 763 763 764 764 764 764 764 763 763 764 765 766 768 771 773 774 775 776 777 778 778 779 779 780 780 780 781
752 752 752 752 752 752 752 752 751 752 752 752 752 752 752 752 753 753 752 751 751 751 751 750 751 751 751 751 751 752 752 752 752 753 754 754 755 755 756 758 758 759 760 761 762 763 763 763 763 763 763 763 764 765 767 769 771 773 774 774 775 776 777 778 778 779 779 779 780
751 751 751 751 752 752 751 751 751 751 751 751 751 750 750 751 751 751 751 750 749 749 749 748 748 748 748 749 750 751 751 752 752 752 753 753 753 754 755 756 757 758 759 760 761 762 762 763 763 763 763 763 764 765 766 768 770 771 772 773 773 774 775 776 777 778 778 778 778
749 749 749 749 750 750 750 750 750 750 750 750 749 749 749 749 749 749 749 748 748 748 748 748 748 747 747 748 749 750 751 751 752 752 752 752 752 753 754 755 756 757 758 759 760 760 761 762 762 762 763 763 763 764 765 767 768 770 771 772 772 773 774 775 775 776 776 777 777
748 748 747 748 748 748 748 748 748 748 748 748 748 748 748 748 748 748 748 748 748 748 748 748 748 747 747 747 748 749 750 750 751 750 750 750 751 751 752 753 754 755 756 757 758 759 760 760 761 761 762 762 763 763 764 766 767 768 769 770 771 772 773 773 774 774 775 775 776
748 747 747 746 746 746 747 747 747 747 747 747 747 747 747 747 747 747 747 747 747 747 747 747 748 747 747 747 748 748 749 749 749 749 749 749 749 750 750 751 752 753 755 756 757 758 758 759 760 760 761 761 762 763 764 765 766 768 769 770 770 771 772 772 773 773 774 774 775
747 746 746 745 745 745 745 745 746 746 746 746 746 746 745 745 746 746 746 746 746 746 747 747 747 747 747 747 747 748 748 748 748 748 748 748 749 749 749 750 751 752 753 754 755 756 757 758 759 759 760 760 761 762 763 764 765 767 768 768 769 770 770 771 772 773 773 773 774
746 746 745 745 744 745 745 745 745 745 744 744 744 744 744 744 744 745 745 745 745 745 746 746 746 746 746 746 747 747 747 747 748 748 748 748 748 748 748 749 750 751 752 753 754 755 756 757 758 758 759 759 760 761 762 763 764 765 766 766 767 768 769 770 771 771 772 772 773
746 745 744 744 743 744 744 744 744 744 743 743 743 743 743 743 743 743 743 744 744 744 744 744 745 745 745 745 746 746 746 746 747 747 747 747 747 748 748 748 749 750 751 752 753 754 755 756 757 757 758 758 759 760 761 762 763 763 764 765 766 767 768 768 769 770 771 771 771
745 745 744 743 743 743 743 743 743 743 742 742 742 742 742 742 742 742 742 743 743 743 743 743 743 743 744 744 744 745 745 745 746 746 746 746 746 747 747 748 748 749 750 751 752 753 754 755 755 756 757 758 758 759 760 761 762 762 763 763 764 765 766 767 768 768 769 770 770
745 745 744 743 743 743 743 743 742 742 741 741 740 740 740 740 740 740 740 741 741 741 741 741 741 742 742 743 743 743 744 744 744 745 745 745 745 746 746 747 747 748 748 749 750 751 753 753 754 755 756 756 757 758 759 759 760 761 761 762 763 764 765 765 766 767 768 768 769
745 745 744 743 743 743 742 742 741 741 740 740 739 739 738 738 738 738 738 738 739 739 740 740 740 740 740 741 741 742 742 743 743 743 743 744 744 744 745 745 746 746 747 748 749 750 751 752 753 754 755 755 756 757 758 758 759 759 760 761 761 762 763 764 764 765 766 767 768
746 745 744 743 743 743 742 741 740 740 739 739 738 738 738 737 737 737 737 737 737 738 738 738 739 739 739 739 739 740 740 740 741 741 742 742 743 743 743 744 744 745 746 746 747 748 749 751 752 753 753 754 755 756 757 757 758 758 759 759 760 761 762 762 763 763 765 766 767
746 745 744 744 743 742 742 741 740 739 738 738 737 737 737 736 736 736 736 736 736 736 737 737 738 738 738 738 738 738 738 738 738 739 740 740 741 742 742 742 743 743 744 744 745 747 748 749 751 752 752 753 754 755 756 756 757 757 758 758 759 759 760 761 762 763 763 765 766
745 745 744 744 743 743 742 741 740 739 738 737 737 736 736 735 735 735 734 734 735 735 735 735 736 736 736 736 736 736 736 736 737 737 738 738 739 740 740 741 741 742 742 743 743 745 747 748 749 750 751 752 753 753 754 755 756 756 757 757 758 758 759 759 760 761 763 764 765
744 744 744 743 743 743 742 741 740 739 738 738 737 736 735 735 734 734 734 733 733 734 734 734 734 735 735 735 735 735 735 735 735 735 736 737 737 738 738 739 739 740 740 741 742 743 745 747 748 749 750 750 751 752 753 754 755 755 756 756 757 757 758 758 759 760 761 763 764
743 743 743 742 742 742 741 741 740 739 739 738 737 736 735 735 734 734 733 733 733 733 733 733 733 733 734 733 733 734 734 734 734 734 735 735 736 736 736 737 738 738 738 739 740 741 743 744 746 747 748 749 750 751 752 753 753 754 755 755 756 757 757 758 758 759 761 762 763
743 743 742 742 742 741 741 741 740 740 739 738 737 737 736 735 734 734 733 733 732 732 732 732 732 732 733 733 733 733 733 733 733 733 734 734 734 735 735 735 736 736 737 738 739 740 741 742 743 745 747 748 749 750 751 752 752 753 753 754 755 756 757 757 758 759 760 760 761
743 743 742 742 741 741 741 741 740 740 739 738 738 737 736 735 734 734 733 733 732 732 731 731 731 731 732 732 732 732 732 732 733 733 733 733 733 734 734 734 735 735 736 737 738 739 739 740 742 743 745 747 748 749 750 750 751 752 753 754 755 755 756 757 758 758 759 759 760
743 743 742 742 741 741 740 740 740 739 738 738 737 737 736 735 734 733 733 732 732 731 731 731 731 731 731 731 731 731 731 732 732 732 733 733 733 733 733 734 734 734 735 736 738 738 739 739 741 742 744 746 747 748 749 749 750 751 752 753 754 755 756 757 757 758 758 759 759
743 742 742 741 741 740 740 739 739 738 738 737 737 736 735 735 734 733 733 732 731 731 731 730 730 730 730 730 730 730 730 731 731 732 732 732 733 733 733 733 734 734 735 736 737 738 738 739 740 742 743 745 746 747 748 749 749 750 752 753 753 754 755 756 757 757 758 758 759
743 742 741 741 740 740 739 738 738 738 737 736 736 735 735 734 734 733 732 732 731 730 730 730 730 730 729 729 730 730 730 730 731 731 731 732 732 732 733 733 733 734 735 736 737 738 738 739 740 742 743 744 745 746 747 748 749 750 751 752 753 754 755 755 756 757 757 758 759
742 741 741 740 740 739 738 738 737 737 736 736 735 735 734 734 733 733 732 731 731 730 730 729 729 729 729 729 729 729 729 730 730 730 731 731 731 732 732 732 733 733 735 736 737 737 738 739 740 741 743 744 745 746 747 748 748 750 751 752 753 753 754 755 755 756 756 757 758
741 741 740 739 739 738 738 737 737 736 735 735 734 734 734 734 733 733 732 731 730 730 729 729 729 728 728 728 728 729 729 729 730 730 730 730 731 731 731 732 732 733 734 736 736 737 737 738 739 740 742 743 744 745 746 748 748 750 751 752 753 753 753 754 754 755 755 756 757
741 740 739 738 738 738 737 737 736 736 735 734 734 734 733 733 733 732 732 731 730 730 729 729 728 728 728 728 728 728 728 728 729 729 730 730 730 730 731 731 732 733 734 735 735 736 736 737 738 740 741 743 744 745 746 747 748 749 751 752 752 753 753 753 753 754 754 755 755
741 740 739 738 737 737 736 736 736 735 734 734 733 733 733 733 732 732 731 731 730 730 729 728 728 728 727 727 727 727 728 728 728 729 729 729 730 730 730 731 732 733 733 733 734 735 735 737 738 739 740 742 743 745 746 747 748 749 750 751 751 752 752 752 753 753 753 753 754
740 739 738 738 737 736 735 735 735 734 734 733 733 732 732 732 732 731 731 730 730 729 729 728 728 727 727 727 727 727 727 728 728 728 728 729 729 730 730 731 731 732 732 733 733 734 735 736 738 739 740 742 743 744 745 746 747 748 749 750 750 751 751 751 751 751 752 752 752
740 739 738 738 736 735 735 734 734 733 733 732 732 731 731 731 731 731 730 730 729 729 728 728 727 727 727 727 726 726 726 727 727 728 728 728 729 729 730 730 731 731 732 732 733 734 735 736 737 738 740 741 742 743 745 746 747 747 748 748 749 749 749 749 750 750 750 751 751
740 739 738 737 736 735 734 733 732 732 732 731 731 731 731 730 730 730 730 729 728 728 728 728 727 727 726 726 726 726 726 726 726 727 727 728 728 728 729 729 730 730 731 732 733 733 734 735 737 738 739 740 742 743 744 745 745 746 747 747 748 748 748 748 748 749 749 749 750